DELTA 1 DEB, 42556

Orbit data source: Space-Track

DELTA 1 DEB, 42556 is space debris in SSO originally from a launch on Sun, 23 Jul 1972 UTC launched from the Air Force Western Test Range (AFWTR). Debris objects in space refer to the collection of defunct objects orbiting the Earth. Examples of debris include non-operational satellites, rocket bodies, and fragments generated from explosions, collisions, or faulty payload assembly.

Loading next visibility...
Identifier
42556, 1972-058JP
Orbit
SSO
Country
Flag of USUS
Related business
Manufacturer
Unknown
Mission
Spacecraft
Bus & Motor
Unknown
Mass
Unknown
Launch date (UTC)
1972-07-23 (53 years ago)
Launch vehicle
Unknown
Launch site
Air Force Western Test Range (AFWTR)
Object type
Payload
Rocket body
Debris
Shape & HBR
Unknown shape, 0.1 m
Radar Cross Section
Small (<0.1 m²)

Expand to show TLE details & history
Last TLE update: 1 week ago

TLE from 1 week ago
0 DELTA 1 DEB
1 42556U 72058JP  25292.41511476  .00006215  00000-0  19907-2 0  9995
2 42556  98.4766   1.3906 0274939  59.9208 302.8928 14.20465973613115
Epoch: 2025-10-19T09:57Z
TLE epoch observation values (Epoch: 2025-10-19T09:57:45.915Z)
Latitude
-0.00005°
Longitude
-176.18282°
Altitude
723.073 km
Speed
7.547 km/s
True Right ascension
00h 05m 33s
True Declination
0° 00' 00"
Sunlit
Object was in full shadow at epoch
Visualization orbit readout
Latitude
Unknown
Longitude
Unknown
Altitude
Unknown
Speed
Unknown
Apparent Right ascension
Unknown
Apparent Declination
Unknown
Sunlit
N/A
Visualization observer readout
Local Sidereal Time
08:58:44
Azimuth
Unknown
Elevation
Unknown
Doppler factor
Unknown
Orbital elements
Apogee altitude
1,018.851 km
Perigee altitude
622.991 km
Semi-major axis
7,199.058 km
Eccentricity
0.02749
Inclination
98.4766°
RAAN
1.3906°
Arg. of periapsis
59.9208°
True anomaly
300.19803°
Mean anomaly
302.8928°
Eccentric anomaly
301.55037°
Mean motion
3.55328 °/min
Orbital period
101.31 mins
BSTAR
0.0019907
Loading maneuver chart data...
Computing Atmospheric mass density...
Loading historical data...
Loading historical data...
Loading historical data...
Loading historical data...
Loading historical data...
Loading historical data...
Loading historical data...

Documentation

Showing up to 5 results
|